• în Republica Moldova
  • Lista ţărilor
  • Pe 7 zile
  • Temperatura apei
  • Hartă satelitară
  • Meteo pe hartă
  • Widget-uri
  • user-avatar
    Intrare

    Meteo pe oră la Konstantyna

    Astăzi, 21 Ianuarie, Luni

    Timp Temperatura Precipitaţii Vânt Presiune Umiditate
    00:00 +7°C° 0 mm 3 m/s 703 mmHg 85%
    01:00 +6°C° 0 mm 2 m/s 703 mmHg 86%
    02:00 +6°C° 0 mm 2 m/s 703 mmHg 88%
    03:00 +6°C° 0 mm 2 m/s 702 mmHg 89%
    04:00 +6°C° 0 mm 2 m/s 702 mmHg 89%
    05:00 +6°C° 0 mm 2 m/s 702 mmHg 89%
    06:00 +6°C° 0 mm 2 m/s 702 mmHg 89%
    07:00 +7°C° 0 mm 2 m/s 703 mmHg 86%
    08:00 +8°C° 0 mm 3 m/s 703 mmHg 82%
    09:00 +9°C° 0 mm 3 m/s 704 mmHg 78%
    10:00 +8°C° 0.1 mm 4 m/s 704 mmHg 79%
    11:00 +8°C° 0.1 mm 5 m/s 704 mmHg 80%
    12:00 +8°C° 0.1 mm 6 m/s 704 mmHg 81%
    13:00 +8°C° 0.4 mm 5 m/s 705 mmHg 81%
    14:00 +7°C° 0.4 mm 5 m/s 705 mmHg 81%
    15:00 +7°C° 0.4 mm 5 m/s 705 mmHg 82%
    16:00 +6°C° 0.1 mm 4 m/s 705 mmHg 85%
    17:00 +5°C° 0.1 mm 3 m/s 706 mmHg 88%
    18:00 +6°C° 0.1 mm 2 m/s 706 mmHg 91%
    19:00 +5°C° 0 mm 2 m/s 706 mmHg 92%
    20:00 +6°C° 0 mm 1 m/s 707 mmHg 92%
    21:00 +5°C° 0 mm 1 m/s 707 mmHg 93%
    22:00 +5°C° 0 mm 1 m/s 707 mmHg 93%
    23:00 +5°C° 0 mm 1 m/s 707 mmHg 94%

    Mâine, 22 Ianuarie, Marţi

    Timp Temperatura Precipitaţii Vânt Presiune Umiditate
    00:00 +4°C° 0 mm 1 m/s 707 mmHg 94%
    01:00 +4°C° 0 mm 1 m/s 707 mmHg 94%
    02:00 +4°C° 0 mm 1 m/s 707 mmHg 94%
    03:00 +4°C° 0 mm 1 m/s 707 mmHg 94%
    04:00 +3°C° 0 mm 1 m/s 707 mmHg 94%
    05:00 +3°C° 0 mm 1 m/s 707 mmHg 94%
    06:00 +3°C° 0 mm 1 m/s 707 mmHg 94%
    07:00 +4°C° 0 mm 1 m/s 707 mmHg 88%
    08:00 +6°C° 0 mm 1 m/s 707 mmHg 83%
    09:00 +7°C° 0 mm 1 m/s 707 mmHg 77%
    10:00 +8°C° 0 mm 1 m/s 707 mmHg 71%
    11:00 +8°C° 0 mm 2 m/s 707 mmHg 64%
    12:00 +9°C° 0 mm 2 m/s 707 mmHg 58%
    13:00 +9°C° 0.4 mm 2 m/s 706 mmHg 59%
    14:00 +9°C° 0.4 mm 2 m/s 705 mmHg 60%
    15:00 +9°C° 0.4 mm 3 m/s 705 mmHg 62%
    16:00 +7°C° 0.3 mm 2 m/s 704 mmHg 70%
    17:00 +7°C° 0.3 mm 1 m/s 704 mmHg 78%
    18:00 +5°C° 0.3 mm 1 m/s 704 mmHg 87%
    19:00 +5°C° 0 mm 1 m/s 704 mmHg 88%
    20:00 +4°C° 0 mm 1 m/s 704 mmHg 88%
    21:00 +4°C° 0 mm 1 m/s 703 mmHg 89%
    22:00 +4°C° 0 mm 1 m/s 703 mmHg 87%
    23:00 +3°C° 0 mm 2 m/s 703 mmHg 86%

    Poimâine, 23 Ianuarie, Miercuri

    Timp Temperatura Precipitaţii Vânt Presiune Umiditate
    00:00 +3°C° 0 mm 2 m/s 702 mmHg 84%
    01:00 +3°C° 0 mm 2 m/s 701 mmHg 81%
    02:00 +3°C° 0 mm 2 m/s 701 mmHg 79%
    03:00 +2°C° 0 mm 3 m/s 700 mmHg 76%
    04:00 +2°C° 0 mm 3 m/s 700 mmHg 77%
    05:00 +1°C° 0 mm 3 m/s 699 mmHg 77%
    06:00 +1°C° 0 mm 3 m/s 699 mmHg 77%
    07:00 +2°C° 0.2 mm 3 m/s 699 mmHg 76%
    08:00 +4°C° 0.2 mm 4 m/s 699 mmHg 74%
    09:00 +5°C° 0.2 mm 5 m/s 700 mmHg 73%
    10:00 +6°C° 0 mm 5 m/s 699 mmHg 70%
    11:00 +5°C° 0 mm 6 m/s 699 mmHg 67%
    12:00 +6°C° 0 mm 7 m/s 698 mmHg 64%
    13:00 +7°C° 0.1 mm 6 m/s 698 mmHg 66%
    14:00 +5°C° 0.1 mm 6 m/s 698 mmHg 68%
    15:00 +5°C° 0.1 mm 6 m/s 697 mmHg 70%
    16:00 +5°C° 0.3 mm 7 m/s 696 mmHg 71%
    17:00 +4°C° 0.3 mm 7 m/s 696 mmHg 71%
    18:00 +4°C° 0.3 mm 8 m/s 695 mmHg 72%
    19:00 +4°C° 1.6 mm 6 m/s 695 mmHg 78%
    20:00 +3°C° 1.6 mm 5 m/s 694 mmHg 84%
    21:00 +4°C° 1.6 mm 4 m/s 694 mmHg 90%
    22:00 +4°C° 2.7 mm 4 m/s 694 mmHg 91%
    23:00 +2°C° 2.7 mm 5 m/s 694 mmHg 92%

    24 Ianuarie, Joi

    Timp Temperatura Precipitaţii Vânt Presiune Umiditate
    00:00 +2°C° 2.7 mm 6 m/s 694 mmHg 93%
    01:00 +1°C° 1.3 mm 6 m/s 693 mmHg 93%
    02:00 -1°C° 1.3 mm 6 m/s 693 mmHg 93%
    03:00 -2°C° 1.3 mm 6 m/s 693 mmHg 93%
    04:00 -2°C° 0.6 mm 6 m/s 692 mmHg 90%
    05:00 -2°C° 0.6 mm 7 m/s 692 mmHg 86%
    06:00 -2°C° 0.6 mm 8 m/s 692 mmHg 83%
    07:00 -3°C° 0.7 mm 10 m/s 691 mmHg 85%
    08:00 -3°C° 0.7 mm 12 m/s 691 mmHg 88%
    09:00 -4°C° 0.7 mm 14 m/s 690 mmHg 90%
    10:00 -2°C° 2.8 mm 14 m/s 691 mmHg 92%
    11:00 -2°C° 2.8 mm 13 m/s 691 mmHg 93%
    12:00 -2°C° 2.8 mm 13 m/s 691 mmHg 95%
    13:00 -2°C° 2.2 mm 12 m/s 692 mmHg 96%
    14:00 -2°C° 2.2 mm 11 m/s 693 mmHg 97%
    15:00 -2°C° 2.2 mm 10 m/s 694 mmHg 98%
    16:00 -1°C° 1.5 mm 9 m/s 695 mmHg 98%
    17:00 -1°C° 1.5 mm 8 m/s 695 mmHg 99%
    18:00 -1°C° 1.5 mm 7 m/s 696 mmHg 99%
    19:00 -1°C° 0.5 mm 6 m/s 696 mmHg 99%
    20:00 0°C° 0.5 mm 4 m/s 697 mmHg 99%
    21:00 +2°C° 0.5 mm 2 m/s 698 mmHg 99%
    22:00 +2°C° 2.1 mm 3 m/s 698 mmHg 99%
    23:00 +1°C° 2.1 mm 4 m/s 699 mmHg 99%

    25 Ianuarie, Vineri

    Timp Temperatura Precipitaţii Vânt Presiune Umiditate
    00:00 +2°C° 2.1 mm 5 m/s 700 mmHg 99%
    01:00 +2°C° 2.2 mm 6 m/s 700 mmHg 99%
    02:00 0°C° 2.2 mm 7 m/s 701 mmHg 99%
    03:00 0°C° 2.2 mm 8 m/s 701 mmHg 98%
    04:00 0°C° 0.2 mm 8 m/s 702 mmHg 98%
    05:00 0°C° 0.2 mm 8 m/s 702 mmHg 97%
    06:00 0°C° 0.2 mm 8 m/s 703 mmHg 97%
    07:00 0°C° 0.2 mm 7 m/s 704 mmHg 96%
    08:00 0°C° 0.2 mm 7 m/s 704 mmHg 95%
    09:00 +1°C° 0.2 mm 6 m/s 705 mmHg 95%
    10:00 0°C° 0.2 mm 7 m/s 705 mmHg 94%
    11:00 0°C° 0.2 mm 7 m/s 706 mmHg 93%
    12:00 0°C° 0.2 mm 7 m/s 706 mmHg 93%
    13:00 0°C° 0.2 mm 8 m/s 706 mmHg 91%
    14:00 +1°C° 0.2 mm 8 m/s 706 mmHg 90%
    15:00 +1°C° 0.2 mm 9 m/s 706 mmHg 89%
    16:00 0°C° 0.1 mm 8 m/s 706 mmHg 91%
    17:00 +1°C° 0.1 mm 6 m/s 707 mmHg 92%
    18:00 0°C° 0.1 mm 5 m/s 707 mmHg 94%
    19:00 0°C° 0.1 mm 5 m/s 708 mmHg 95%
    20:00 0°C° 0.1 mm 5 m/s 708 mmHg 95%
    21:00 0°C° 0.1 mm 5 m/s 709 mmHg 96%
    22:00 0°C° 0.1 mm 4 m/s 709 mmHg 95%
    23:00 +1°C° 0.1 mm 3 m/s 709 mmHg 95%

    26 Ianuarie, Sâmbătă

    Timp Temperatura Precipitaţii Vânt Presiune Umiditate
    00:00 +1°C° 0.1 mm 3 m/s 709 mmHg 95%
    01:00 +2°C° 0 mm 2 m/s 709 mmHg 94%
    02:00 +1°C° 0 mm 2 m/s 708 mmHg 94%
    03:00 +1°C° 0 mm 2 m/s 708 mmHg 93%
    04:00 +1°C° 0 mm 2 m/s 709 mmHg 93%
    05:00 +1°C° 0 mm 2 m/s 709 mmHg 93%
    06:00 +1°C° 0 mm 2 m/s 709 mmHg 93%
    07:00 +2°C° 0 mm 2 m/s 709 mmHg 92%
    08:00 +3°C° 0 mm 2 m/s 710 mmHg 91%
    09:00 +4°C° 0 mm 2 m/s 710 mmHg 90%
    10:00 +4°C° 0 mm 3 m/s 710 mmHg 87%
    11:00 +5°C° 0 mm 3 m/s 710 mmHg 84%
    12:00 +6°C° 0 mm 4 m/s 710 mmHg 81%
    13:00 +6°C° 0 mm 4 m/s 710 mmHg 81%
    14:00 +7°C° 0 mm 3 m/s 710 mmHg 80%
    15:00 +7°C° 0 mm 3 m/s 710 mmHg 80%
    16:00 +5°C° 0 mm 3 m/s 710 mmHg 83%
    17:00 +5°C° 0 mm 2 m/s 710 mmHg 86%
    18:00 +4°C° 0 mm 2 m/s 710 mmHg 89%
    19:00 +3°C° 0 mm 2 m/s 710 mmHg 88%
    20:00 +3°C° 0 mm 2 m/s 710 mmHg 88%
    21:00 +2°C° 0 mm 2 m/s 710 mmHg 88%
    22:00 +2°C° 0 mm 2 m/s 709 mmHg 87%
    23:00 +2°C° 0 mm 2 m/s 709 mmHg 86%
    Arată mai mult